1387411234229,110.213
1387411294229,110.342
1387411354229,109.582
1387411414229,110.460
1387411474229,110.220
1387411534229,110.715
1387411594229,110.403
1387411654229,110.232
1387411714229,109.937
1387411774229,110.055
1387411834229,109.944
1387411894229,109.961
1387411954229,110.004
1387412014229,110.128
1387412074229,109.412
1387412134229,109.555
1387412194229,110.678
1387412254229,109.207
1387412314229,109.974
1387412374229,109.284
1387412434229,109.517
1387412494229,109.198
1387412554229,110.058
1387412614229,109.667
1387412674229,109.981
1387412734229,110.060
1387412794229,109.266
1387412854229,109.870
1387412914229,109.920
1387412974229,108.776
1387413034229,109.626
1387413094229,109.721
1387413154229,109.340
1387413214229,109.994
1387413274229,109.741
1387413334229,109.701
1387413394229,109.791
1387413454229,109.825
1387413514229,109.870
1387413574229,109.615
1387413634229,109.533
1387413694229,109.396
1387413754229,109.855
1387413814229,109.507
1387413874229,109.146
1387413934229,109.409
1387413994229,109.072
1387414054229,109.611
1387414114229,109.369
1387414174229,109.409
1387414234229,109.711
1387414294229,109.625
1387414354229,109.493
1387414414229,109.556
1387414474229,109.508
1387414534229,109.351
1387414594229,109.422
1387414654229,109.023
1387414714229,109.135
1387414774229,109.318
1387414834240,108.675
1387414894240,109.401
1387414954240,109.677
1387415014240,109.364
1387415074240,109.361
1387415134240,109.552
1387415194240,109.565
1387415254240,109.265
1387415314240,109.611
1387415374240,109.473
1387415434240,109.503
1387415494240,109.271
1387415554240,109.436
1387415614240,109.707
1387415674240,109.231
1387415734240,109.234
1387415794240,109.039
1387415854240,109.587
1387415914240,109.201
1387415974240,109.299
1387416034240,109.060
1387416094240,109.297
1387416154240,109.460
1387416214240,109.325
1387416274240,109.474
1387416334240,109.601
1387416394240,109.718
1387416454240,109.496
1387416514240,109.449
1387416574240,109.466
1387416634240,109.114
1387416694240,109.509
1387416754240,109.685
1387416814240,109.220
1387416874240,109.601
1387416934240,109.703
1387416994240,109.635
1387417054240,109.443
1387417114240,109.782
1387417174240,109.556
1387417234240,109.773
1387417294240,109.557
1387417354240,109.769
1387417414240,109.719
1387417474240,109.706
1387417534240,109.346
1387417594240,109.380
1387417654240,109.723
1387417714240,109.569
1387417774240,109.500
1387417834240,109.286
1387417894240,109.962
1387417954240,109.804
1387418014240,109.887
1387418074240,109.892
1387418134240,109.613
1387418194240,109.517
1387418254240,109.918
1387418314240,109.599
1387418374240,109.731
1387418434250,110.031
1387418494250,110.077
1387418554250,109.992
1387418614250,110.027
1387418674250,110.179
1387418734250,109.882
1387418794250,109.750
1387418854250,109.840
1387418914250,109.772
1387418974250,110.164
1387419034250,110.167
1387419094250,109.820
1387419154250,109.708
1387419214250,109.899
1387419274250,109.332
1387419334250,110.451
1387419394250,110.035
1387419454250,110.101
1387419514250,109.598
1387419574250,109.953
1387419634250,110.176
1387419694250,109.963
1387419754250,110.088
1387419814250,110.037
1387419874250,110.091
1387419934250,110.113
1387419994250,109.849
1387420054250,109.819
1387420114250,109.781
1387420174250,109.813
1387420234250,109.823
1387420294250,109.431
1387420354250,110.280
1387420414250,109.946
1387420474250,109.669
1387420534250,109.754
1387420594250,110.355
1387420654250,110.122
1387420714250,110.356
1387420774250,110.118
1387420834250,110.064
1387420894250,110.233
1387420954250,109.784
1387421014250,109.505
1387421074250,110.064
1387421134250,109.865
1387421194250,109.355
1387421254250,109.966
1387421314250,109.709
1387421374250,109.878
1387421434250,110.063
1387421494250,109.753
1387421554250,110.069
1387421614250,109.917
1387421674250,110.039
1387421734250,110.377
1387421794250,110.069
1387421854250,109.786
1387421914250,109.818
1387421974250,110.050
1387422034260,110.603
1387422094260,110.006
1387422154260,109.543
1387422214260,110.122
1387422274260,110.303
1387422334260,110.149
1387422394260,110.163
1387422454260,109.897
1387422514260,109.637
1387422574260,110.418
1387422634260,110.178
1387422694260,110.278
1387422754260,110.072
1387422814260,110.479
1387422874260,110.046
1387422934260,110.017
1387422994260,110.481
1387423054260,110.288
1387423114260,110.091
1387423174260,110.406
1387423234260,110.379
1387423294260,110.434
1387423354260,110.280
1387423414260,110.605
1387423474260,109.886
1387423534260,110.254
1387423594260,110.405
1387423654260,110.348
1387423714260,110.316
1387423774260,110.390
1387423834260,110.378
1387423894260,110.480
1387423954260,110.746
1387424014260,110.503
1387424074260,110.518
1387424134260,110.834
1387424194260,110.696
1387424254260,111.033
1387424314260,110.447
1387424374260,110.891
1387424434260,110.673
1387424494260,110.816
1387424554260,110.508
1387424614260,110.316
1387424674260,110.532
1387424734260,110.907
1387424794260,110.455
1387424854260,110.686
1387424914260,110.133
1387424974260,110.646
1387425034260,110.809
1387425094260,110.877
1387425154260,110.518
1387425214260,110.729
1387425274260,110.391
1387425334260,110.344
1387425394260,111.014
1387425454260,110.802
1387425514260,111.320
1387425574260,111.127
1387425634270,110.819
1387425694270,111.143
1387425754270,110.783
1387425814270,111.134
1387425874270,110.699
1387425934270,111.241
1387425994270,111.246
1387426054270,111.592
1387426114270,111.183
1387426174270,111.109
1387426234270,111.125
1387426294270,110.948
1387426354270,110.414
1387426414270,110.961
1387426474270,111.049
1387426534270,110.987
1387426594270,110.898
1387426654270,110.702
1387426714270,110.649
1387426774270,109.997
1387426834270,111.169
1387426894270,110.677
1387426954270,110.849
1387427014270,110.790
1387427074270,110.746
1387427134270,110.931
1387427194270,111.217
1387427254270,110.657
1387427314270,111.050
1387427374270,111.147
1387427434270,110.812
1387427494270,111.067
1387427554270,110.977
1387427614270,110.989
1387427674270,111.145
1387427734270,110.905
1387427794270,110.901
1387427854270,110.767
1387427914270,110.864
1387427974270,110.470
1387428034270,111.223
1387428094270,110.788
1387428154270,110.789
1387428214270,111.189
1387428274270,111.133
1387428334270,111.352
1387428394270,111.010
1387428454270,111.537
1387428514270,111.337
1387428574270,110.932
1387428634270,110.696
1387428694270,110.974
1387428754270,111.172
1387428814270,111.981
1387428874270,111.138
1387428934270,111.165
1387428994270,110.782
1387429054270,110.762
1387429114270,111.153
1387429174270,111.469
1387429234280,111.272
1387429294280,110.807
1387429354280,111.215
1387429414280,111.031
1387429474280,111.173
1387429534280,110.583
1387429594280,111.023
1387429654280,110.991
1387429714280,111.115
1387429774280,110.772
1387429834280,111.062
1387429894280,110.393
1387429954280,110.582
1387430014280,110.670
1387430074280,110.770
1387430134280,110.844
1387430194280,110.724
1387430254280,110.577
1387430314280,110.857
1387430374280,110.773
1387430434280,111.108
1387430494280,110.983
1387430554280,110.672
1387430614280,110.393
1387430674280,110.834
1387430734280,110.580
1387430794280,110.738
1387430854280,110.444
1387430914280,110.936
1387430974280,110.661
1387431034280,110.537
1387431094280,110.709
1387431154280,111.100
1387431214280,110.596
1387431274280,110.613
1387431334280,110.766
1387431394280,110.488
1387431454280,110.859
1387431514280,110.292
1387431574280,110.094
1387431634280,110.509
1387431694280,110.098
1387431754280,110.882
1387431814280,110.525
1387431874280,110.542
1387431934280,110.118
1387431994280,110.449
1387432054280,109.892
1387432114280,110.410
1387432174280,110.517
1387432234280,110.794
1387432294280,110.553
1387432354280,109.995
1387432414280,110.458
1387432474280,110.008
1387432534280,110.183
1387432594280,109.895
1387432654280,110.212
1387432714280,110.325
1387432774280,110.131
1387432834290,110.220
1387432894290,110.017
1387432954290,110.259
1387433014291,109.776
1387433074291,109.888
1387433134291,110.058
1387433194291,110.435
1387433254290,109.854
1387433314290,109.820
1387433374290,110.537
1387433434290,109.894
1387433494290,110.105
1387433554290,110.126
1387433614290,110.504
1387433674290,110.016
1387433734290,110.765
1387433794290,110.229
1387433854290,110.038
1387433914290,110.275
1387433974290,110.101
1387434034290,110.079
1387434094290,110.531
1387434154290,109.732
1387434214290,110.260
1387434274290,110.251
1387434334291,110.624
1387434394291,110.031
1387434454291,109.668
1387434514291,110.540
1387434574291,110.563
1387434634290,110.271
1387434694290,110.781
1387434754290,110.652
1387434814290,110.171
1387434874290,110.005
1387434934290,110.864
1387434994290,110.802
1387435054290,110.579
1387435114290,110.983
1387435174290,110.400
1387435234290,110.663
1387435294290,110.953
1387435354290,110.423
1387435414290,110.553
1387435474290,110.961
1387435534290,110.393
1387435594290,110.337
1387435654290,110.583
1387435714291,110.522
1387435774291,110.355
1387435834291,110.665
1387435894291,110.604
1387435954290,110.959
1387436014290,110.600
1387436074290,110.783
1387436134290,110.761
1387436194290,111.000
1387436254290,110.879
1387436314290,110.690
1387436374290,110.567
1387436434301,111.374
1387436494301,110.670
1387436554301,111.601
1387436614301,111.068
1387436674301,110.952
1387436734301,111.994
1387436794301,111.463
1387436854301,111.171
1387436914301,111.066
1387436974301,110.913
1387437034301,110.817
1387437094301,111.379
1387437154301,111.724
1387437214301,111.739
1387437274301,111.405
1387437334301,111.466
1387437394301,111.233
1387437454301,111.505
1387437514301,111.321
1387437574301,111.368
1387437634301,111.307
1387437694301,111.244
1387437754301,110.984
1387437814301,111.162
1387437874301,110.945
1387437934301,110.985
1387437994301,110.976
1387438054301,111.422
1387438114301,111.535
1387438174301,110.932
1387438234301,110.949
1387438294301,110.594
1387438354301,111.064
1387438414301,110.761
1387438474301,110.925
1387438534301,111.274
1387438594301,111.079
1387438654301,111.018
1387438714301,110.748
1387438774301,110.630
1387438834301,110.599
1387438894301,110.776
1387438954301,111.006
1387439014301,110.713
1387439074301,110.753
1387439134301,110.698
1387439194301,110.605
1387439254301,110.847
1387439314301,110.511
1387439374301,110.580
1387439434301,110.729
1387439494301,110.792
1387439554301,110.651
1387439614301,110.886
1387439674301,110.715
1387439734301,110.300
1387439794301,110.690
1387439854301,110.439
1387439914301,110.761
1387439974301,110.497
1387440034312,110.728
1387440094312,110.299
1387440154312,110.673
1387440214312,110.540
1387440274312,111.302
1387440334312,110.477
1387440394312,110.749
1387440454312,110.659
1387440514312,110.891
1387440574312,110.624
1387440634312,110.604
1387440694312,110.607
1387440754312,110.423
1387440814312,110.287
1387440874312,110.557
1387440934312,110.547
1387440994312,110.405
1387441054312,110.456
1387441114312,110.843
1387441174312,110.175
1387441234312,110.495
1387441294312,110.645
1387441354312,110.733
1387441414312,110.813
1387441474312,111.286
1387441534312,110.771
1387441594312,110.954
1387441654312,110.794
1387441714312,110.759
1387441774312,110.760
1387441834312,111.151
1387441894312,110.382
1387441954312,110.481
1387442014312,110.773
1387442074312,110.990
1387442134312,110.484
1387442194312,110.594
1387442254312,110.326
1387442314312,110.273
1387442374312,110.525
1387442434312,110.251
1387442494312,110.589
1387442554312,109.939
1387442614312,110.586
1387442674312,110.818
1387442734312,110.496
1387442794312,110.600
1387442854312,110.239
1387442914312,110.433
1387442974312,110.880
1387443034312,110.479
1387443094312,110.258
1387443154312,110.658
1387443214312,110.151
1387443274312,110.467
1387443334312,110.766
1387443394312,110.667
1387443454312,110.779
1387443514312,110.776
1387443574312,110.648
1387443634323,111.138
1387443694323,111.140
1387443754323,110.788
1387443814323,111.094
1387443874323,110.940
1387443934323,110.865
1387443994323,110.621
1387444054323,111.283
1387444114323,110.830
1387444174323,110.921
1387444234323,110.906
1387444294323,110.533
1387444354323,110.565
1387444414323,110.669
1387444474323,110.476
1387444534323,111.235
1387444594323,110.821
1387444654323,110.413
1387444714323,111.534
1387444774323,110.706
1387444834323,111.068
1387444894323,110.740
1387444954323,110.955
1387445014323,111.143
1387445074323,111.168
1387445134323,110.844
1387445194323,110.262
1387445254323,111.193
1387445314323,110.813
1387445374323,110.947
1387445434323,110.666
1387445494323,110.437
1387445554323,110.778
1387445614323,111.024
1387445674323,111.206
1387445734323,110.818
1387445794323,110.774
1387445854323,111.177
1387445914323,110.205
1387445974323,110.483
1387446034323,110.494
1387446094323,110.712
1387446154323,110.676
1387446214323,110.049
1387446274323,110.437
1387446334323,110.353
1387446394323,110.516
1387446454323,110.730
1387446514323,110.265
1387446574323,110.551
1387446634323,110.357
1387446694323,110.681
1387446754323,110.302
1387446814323,111.044
1387446874323,110.704
1387446934323,110.708
1387446994323,110.679
1387447054323,110.156
1387447114323,110.521
1387447174323,110.437
1387447234335,110.833
1387447294335,110.308
1387447354335,111.008
1387447414335,110.164
1387447474335,110.657
1387447534335,110.342
1387447594335,110.100
1387447654335,110.369
1387447714335,110.716
1387447774335,110.223
1387447834335,110.115
1387447894335,110.474
1387447954335,110.544
1387448014335,110.471
1387448074335,110.363
1387448134335,110.367
1387448194335,110.519
1387448254335,110.398
1387448314335,110.042
1387448374335,110.735
1387448434335,110.630
1387448494335,110.371
1387448554335,110.606
1387448614335,110.441
1387448674335,109.870
1387448734335,110.674
1387448794335,110.831
1387448854335,110.397
1387448914335,110.626
1387448974335,110.888
1387449034335,110.975
1387449094335,111.030
1387449154335,111.062
1387449214335,110.620
1387449274335,110.398
1387449334335,110.582
1387449394335,110.823
1387449454335,110.662
1387449514335,110.808
1387449574335,110.369
1387449634335,110.210
1387449694335,110.858
1387449754335,109.687
1387449814335,110.437
1387449874335,112.109
1387449934335,109.820
1387449994335,110.942
1387450054335,110.417
1387450114335,110.140
1387450174335,110.382
1387450234335,110.196
1387450294335,110.504
1387450354335,110.367
1387450414335,109.957
1387450474335,110.699
1387450534335,110.466
1387450594335,110.107
1387450654335,110.494
1387450714335,110.321
1387450774335,110.184
1387450834346,110.455
1387450894346,109.915
1387450954346,110.266
1387451014346,110.176
1387451074346,109.832
1387451134346,110.194
1387451194346,110.051
1387451254346,110.332
1387451314346,110.730
1387451374346,110.391
1387451434346,110.590
1387451494346,110.576
1387451554346,110.357
1387451614346,110.452
1387451674346,109.999
1387451734346,110.528
1387451794346,110.774
1387451854346,110.779
1387451914346,110.334
1387451974346,111.029
1387452034346,110.760
1387452094346,110.595
1387452154346,110.738
1387452214346,110.903
1387452274346,110.831
1387452334346,111.436
1387452394346,111.695
1387452454346,111.095
1387452514346,111.304
1387452574346,111.274
1387452634346,111.075
1387452694346,110.878
1387452754346,111.265
1387452814346,110.775
1387452874346,110.621
1387452934346,110.947
1387452994346,111.251
1387453054346,110.952
1387453114346,110.317
1387453174346,111.311
1387453234346,111.015
1387453294346,111.052
1387453354346,110.583
1387453414346,110.613
1387453474346,110.985
1387453534346,110.722
1387453594346,110.780
1387453654346,110.770
1387453714346,110.568
1387453774346,110.337
1387453834346,110.701
1387453894346,110.328
1387453954346,110.646
1387454014346,110.695
1387454074346,110.711
1387454134346,110.782
1387454194346,110.840
1387454254346,110.558
1387454314346,110.754
1387454374346,111.302
1387454434358,110.806
1387454494358,111.296
1387454554358,110.670
1387454614358,110.527
1387454674358,110.711
1387454734358,111.154
1387454794358,110.432
1387454854358,110.757
1387454914358,110.492
1387454974358,110.683
1387455034358,110.453
1387455094358,111.146
1387455154358,110.953
1387455214358,110.698
1387455274358,110.819
1387455334358,110.426
1387455394358,110.840
1387455454358,111.243
1387455514358,110.707
1387455574358,110.816
1387455634358,111.009
1387455694358,110.818
1387455754358,110.597
1387455814358,110.603
1387455874358,110.456
1387455934358,110.694
1387455994358,110.857
1387456054358,110.700
1387456114358,110.338
1387456174358,110.208
1387456234358,110.530
1387456294358,110.562
1387456354358,110.444
1387456414358,110.766
1387456474358,110.199
1387456534358,111.002
1387456594358,110.383
1387456654358,110.519
1387456714358,110.321
1387456774358,110.602
1387456834358,110.301
1387456894358,110.600
1387456954358,110.041
1387457014358,110.194
1387457074358,110.406
1387457134358,110.475
1387457194358,110.787
1387457254358,110.915
1387457314358,110.604
1387457374358,110.783
1387457434358,110.705
1387457494358,110.254
1387457554358,110.251
1387457614358,110.415
1387457674358,110.509
1387457734358,110.513
1387457794358,110.178
1387457854358,110.454
1387457914358,110.875
1387457974358,110.571
1387458034369,110.532
1387458094369,110.747
1387458154369,110.217
1387458214369,110.493
1387458274369,110.861
1387458334369,110.622
1387458394369,110.622
1387458454369,111.075
1387458514369,110.678
1387458574369,110.681
1387458634369,110.651
1387458694369,110.860
1387458754369,110.836
1387458814369,110.754
1387458874369,110.459
1387458934369,110.402
1387458994369,110.589
1387459054369,111.239
1387459114369,110.733
1387459174369,110.580
1387459234369,110.985
1387459294369,110.906
1387459354369,110.705
1387459414369,110.627
1387459474369,110.785
1387459534369,111.135
1387459594369,111.036
1387459654369,110.770
1387459714369,110.871
1387459774369,110.778
1387459834369,110.620
1387459894369,110.281
1387459954369,110.710
1387460014369,110.754
1387460074369,110.933
1387460134369,111.205
1387460194369,110.849
1387460254369,110.922
1387460314369,111.084
1387460374369,111.172
1387460434369,110.712
1387460494369,110.465
1387460554369,111.096
1387460614369,110.954
1387460674369,110.869
1387460734369,111.123
1387460794369,111.021
1387460854369,111.266
1387460914369,110.708
1387460974369,110.810
1387461034369,110.896
1387461094369,111.249
1387461154369,110.986
1387461214369,110.806
1387461274369,110.639
1387461334369,110.962
1387461394369,110.822
1387461454369,110.660
1387461514369,110.990
1387461574369,111.294
1387461634381,111.110
1387461694381,110.963
1387461754381,111.063
1387461814381,111.346
1387461874381,110.601
1387461934381,110.882
1387461994381,110.800
1387462054381,110.807
1387462114381,110.947
1387462174381,110.907
1387462234381,111.285
1387462294381,110.613
1387462354381,111.235
1387462414381,111.196
1387462474381,110.567
1387462534381,111.075
1387462594381,111.517
1387462654381,110.796
1387462714381,110.988
1387462774381,111.327
1387462834381,111.322
1387462894381,111.409
1387462954381,111.048
1387463014381,111.363
1387463074381,110.984
1387463134381,111.453
1387463194381,111.271
1387463254381,111.135
1387463314381,111.719
1387463374381,111.348
1387463434381,111.304
1387463494381,111.306
1387463554381,111.814
1387463614381,111.311
1387463674381,111.613
1387463734381,111.566
1387463794381,111.084
1387463854381,111.411
1387463914381,111.622
1387463974381,111.633
1387464034381,111.655
1387464094381,111.668
1387464154381,111.505
1387464214381,111.837
1387464274381,111.704
1387464334381,111.252
1387464394381,111.543
1387464454381,112.180
1387464514381,111.947
1387464574381,111.471
1387464634381,111.682
1387464694381,111.533
1387464754381,111.789
1387464814381,111.840
1387464874381,112.060
1387464934381,111.288
1387464994381,111.535
1387465054381,111.495
1387465114381,112.046
1387465174381,111.645
1387465234392,111.936
1387465294392,111.476
1387465354392,111.633
1387465414392,111.882
1387465474392,111.560
1387465534392,111.394
1387465594392,111.669
1387465654392,111.627
1387465714392,111.931
1387465774392,111.473
1387465834392,111.691
1387465894392,111.956
1387465954392,111.637
1387466014392,112.193
1387466074392,111.893
1387466134392,111.603
1387466194392,111.628
1387466254392,111.463
1387466314392,112.172
1387466374392,111.419
1387466434392,110.905
1387466494392,111.212
1387466554392,111.818
1387466614392,111.565
1387466674392,111.480
1387466734392,111.334
1387466794392,111.740
1387466854392,111.478
1387466914392,111.055
1387466974392,111.481
1387467034392,111.704
1387467094392,110.943
1387467154392,111.802
1387467214392,111.661
1387467274392,111.457
1387467334392,111.780
1387467394392,111.898
1387467454392,111.493
1387467514392,111.363
1387467574392,111.936
1387467634392,111.424
1387467694392,111.644
1387467754392,111.722
1387467814392,111.591
1387467874392,111.701
1387467934392,111.583
1387467994392,111.793
1387468054392,111.625
1387468114392,112.041
1387468174392,111.214
1387468234392,111.624
1387468294392,111.973
1387468354392,111.723
1387468414392,111.373
1387468474392,111.537
1387468534392,111.926
1387468594392,111.508
1387468654392,111.839
1387468714392,112.185
1387468774392,111.632
1387468834404,111.323
1387468894404,111.320
1387468954404,112.250
1387469014404,111.939
1387469074404,111.785
1387469134404,111.991
1387469194404,111.806
1387469254404,111.479
1387469314404,111.680
1387469374404,111.911
1387469434404,112.150
1387469494404,112.186
1387469554404,111.817
1387469614404,112.106
1387469674404,111.937
1387469734404,111.866
1387469794404,112.368
1387469854404,112.902
1387469914404,112.821
1387469974404,112.207
1387470034404,112.278
1387470094404,111.955
1387470154404,112.072
1387470214404,112.816
1387470274404,112.525
1387470334404,112.824
1387470394404,113.081
1387470454404,112.112
1387470514404,112.521
1387470574404,113.082
1387470634404,113.290
1387470694404,113.330
1387470754404,113.423
1387470814404,112.697
1387470874404,113.035
1387470934404,112.915
1387470994404,112.707
1387471054404,113.077
1387471114404,112.655
1387471174404,112.739
1387471234404,112.862
1387471294404,113.165
1387471354404,113.070
1387471414404,112.557
1387471474404,112.909
1387471534404,113.011
1387471594404,112.756
1387471654404,113.043
1387471714404,112.918
1387471774404,112.876
1387471834404,113.043
1387471894404,113.021
1387471954404,112.999
1387472014404,112.738
1387472074404,112.578
1387472134404,112.745
1387472194404,113.352
1387472254404,113.267
1387472314404,113.522
1387472374404,113.157
1387472434415,112.989
1387472494415,112.963
1387472554415,113.152
1387472614415,113.437
1387472674415,113.147
1387472734415,113.732
1387472794415,113.279
1387472854415,113.731
1387472914415,113.343
1387472974415,113.525
1387473034415,113.390
1387473094415,113.191
1387473154415,113.295
1387473214415,113.772
1387473274415,113.194
1387473334415,113.257
1387473394415,112.885
1387473454415,113.355
1387473514415,113.575
1387473574415,113.091
1387473634415,113.370
1387473694415,113.211
1387473754415,113.887
1387473814415,113.937
1387473874415,113.576
1387473934415,113.466
1387473994415,113.338
1387474054415,113.943
1387474114415,113.659
1387474174415,113.074
1387474234415,113.386
1387474294415,113.033
1387474354415,113.175
1387474414415,113.069
1387474474415,113.440
1387474534415,113.506
1387474594415,113.724
1387474654415,113.140
1387474714415,113.285
1387474774415,113.197
1387474834415,113.413
1387474894415,113.975
1387474954415,113.488
1387475014415,113.852
1387475074415,113.851
1387475134415,113.618
1387475194415,113.302
1387475254415,113.872
1387475314415,113.929
1387475374415,113.530
1387475434415,113.680
1387475494415,113.481
1387475554415,113.244
1387475614415,113.256
1387475674415,114.355
1387475734415,113.388
1387475794415,114.011
1387475854415,113.844
1387475914415,113.431
1387475974415,113.889
1387476034426,113.900
1387476094426,113.521
1387476154426,113.303
1387476214426,114.059
1387476274426,113.474
1387476334426,113.475
1387476394426,113.320
1387476454426,113.573
1387476514426,113.560
1387476574426,113.379